CW7229 Weather Reports


time (UTC)temp
C
wind
direction
speed
KPH
gust
KPH
rain 1hr
cm
rain 24hr
cm
rain mn
cm
humidity
%
barometer
mb
20260901030114 16 302 6.4 11.3 0.00 0.30 0.00 50 1013.5
20260901020114 16 214 8.0 14.5 0.00 0.30 0.00 48 1013.5
20260901013113 16 316 9.7 12.9 0.00 0.30 0.00 48 1013.5
20260901010113 16 234 6.4 12.9 0.00 0.30 0.00 48 1012.5
20260901003112 16 305 6.4 12.9 0.00 0.30 0.00 48 1012.5
20260901000112 16 290 9.7 17.7 0.00 0.30 0.00 47 1012.5
20260831233112 16 262 11.3 25.7 0.00 0.30 0.00 46 1012.5
20260831230111 16 215 11.3 16.1 0.00 0.30 0.00 47 1012.5
20260831213110 15 260 8.0 12.9 0.00 0.30 0.30 54 1011.5
20260831203110 15 320 6.4 12.9 0.00 0.30 0.30 50 1011.5
20260831200110 15 193 8.0 12.9 0.00 0.30 0.30 53 1010.5
20260831193110 15 180 6.4 14.5 0.00 0.30 0.30 54 1010.5
20260831180131 16 133 8.0 12.9 0.13 0.30 0.30 58 1009.5
20260831173111 16 171 8.0 14.5 0.20 0.30 0.30 55 1009.5
20260831170130 17 211 1.6 12.9 0.08 0.18 0.18 49 1009.4
20260831153114 18 169 4.8 9.7 0.05 0.08 0.08 41 1008.4
20260831150114 18 250 6.4 16.1 0.05 0.08 0.08 43 1008.4
20260831143113 21 227 17.7 20.9 0.00 0.03 0.03 31 1008.3
20260831140113 22 264 9.7 14.5 0.00 0.03 0.03 26 1007.2
20260831123112 23 204 11.3 19.3 0.00 0.00 0.00 21 1007.2
20260831120112 24 165 12.9 20.9 0.00 0.00 0.00 22 1007.1
20260831113111 21 181 6.4 12.9 0.00 0.00 0.00 31 1008.3
20260831110111 22 260 9.7 14.5 0.00 0.00 0.00 24 1008.2
20260831103111 22 211 11.3 17.7 0.00 0.00 0.00 24 1008.2
20260831093110 22 221 9.7 17.7 0.00 0.00 0.00 30 1008.2
20260831090110 21 194 12.9 17.7 0.00 0.00 0.00 33 1008.3
20260831083110 20 221 9.7 12.9 0.00 0.00 0.00 36 1008.3
20260831080110 19 191 8.0 16.1 0.00 0.00 0.00 38 1008.3
20260831070113 18 256 12.9 16.1 0.00 0.00 0.00 39 1008.4
20260831063114 18 192 9.7 12.9 0.00 0.00 0.00 40 1008.4
20260831060134 17 204 8.0 12.9 0.00 0.00 0.00 44 1008.4
20260831050134 15 156 0.0 0.0 0.00 0.00 0.00 47 1007.5
20260831043113 15 156 0.0 0.0 0.00 0.00 0.00 47 1007.5
20260831040113 16 156 0.0 0.0 0.00 0.00 0.00 47 1007.5